Location: Trondheim
(63.4170°N, 10.4170°E)
Time: 16:16:57
(UTC+02:00)

Iridium 82 - Visible Passes

Search period start: 31 August 2016 00:00
Search period end: 10 September 2016 00:00
Orbit: 776 x 779 km, 86.4° (Epoch: 30 August)

Date Brightness Start Highest point End Pass type
(mag) Time Alt. Az. Time Alt. Az. Time Alt. Az.
31 Aug 6.7 00:56:27 10° NNW 01:01:08 34° W 01:04:24 17° SW visible
31 Aug 6.0 22:41:53 10° N 22:46:56 46° ENE 22:50:27 19° SE visible
01 Sep 6.2 00:22:45 10° NNW 00:27:47 49° W 00:30:56 22° SSW visible
01 Sep 7.8 02:04:43 10° NNW 02:07:23 14° WNW 02:10:03 10° W visible
01 Sep 6.5 22:08:24 10° N 22:13:08 33° ENE 22:16:59 14° SE visible
01 Sep 5.7 23:49:07 10° N 23:54:20 71° W 23:57:27 25° S visible
02 Sep 7.5 01:30:35 10° NNW 01:34:17 20° WNW 01:37:55 10° WSW visible
02 Sep 6.9 21:34:58 10° N 21:39:14 24° ENE 21:43:28 10° ESE visible
02 Sep 5.5 23:15:31 10° N 23:20:47 82° E 23:23:59 24° SSE visible
03 Sep 7.1 00:56:42 10° NNW 01:01:05 28° WNW 01:04:28 15° SW visible
03 Sep 5.7 22:41:58 10° N 22:47:09 57° ENE 22:50:32 21° SSE visible
04 Sep 6.6 00:22:56 10° NNW 00:27:47 39° W 00:30:59 19° SW visible
04 Sep 8.0 02:05:31 10° NW 02:07:11 11° WNW 02:08:51 10° WNW visible
04 Sep 6.2 22:08:27 10° N 22:13:24 40° ENE 22:17:04 17° SE visible
04 Sep 6.0 23:49:16 10° NNW 23:54:23 56° W 23:57:32 23° SSW visible
05 Sep 7.8 01:31:00 10° NNW 01:34:07 16° WNW 01:37:16 10° WSW visible
05 Sep 6.6 21:34:59 10° N 21:39:33 29° ENE 21:43:37 12° ESE visible
05 Sep 5.6 23:15:38 10° N 23:20:54 81° W 23:24:05 24° S visible
06 Sep 7.4 00:56:58 10° NNW 01:00:58 23° WNW 01:04:34 12° WSW visible
06 Sep 7.0 21:01:36 10° N 21:05:36 22° NE 21:09:37 10° ESE visible
06 Sep 5.5 22:42:03 10° N 22:47:19 71° E 22:50:39 23° SSE visible
07 Sep 6.9 00:23:09 10° NNW 00:27:45 32° WNW 00:31:07 16° SW visible
07 Sep 5.9 22:08:31 10° N 22:13:38 49° ENE 22:17:13 19° SE visible
07 Sep 6.4 23:49:25 10° NNW 23:54:24 45° W 23:57:41 20° SSW visible
08 Sep 8.0 01:31:33 10° NW 01:33:56 13° WNW 01:36:19 10° W visible
08 Sep 6.3 21:35:01 10° N 21:39:51 35° ENE 21:43:47 14° SE visible
08 Sep 5.8 23:15:46 10° N 23:20:58 65° W 23:24:15 23° SSW visible
09 Sep 7.7 00:57:19 10° NNW 01:00:50 19° WNW 01:04:22 10° WSW visible
09 Sep 6.8 21:01:35 10° N 21:05:57 26° ENE 21:10:19 10° ESE visible
09 Sep 5.5 22:42:10 10° N 22:47:27 88° E 22:50:49 23° S visible
